Year,Month,Day,Hour,Minute,Value (Times are PST for temperature in C)
2012,01,16,13,38,2.50
2012,01,16,13,39,2.60
2012,01,16,13,40,2.60
2012,01,16,13,41,2.70
2012,01,16,13,42,2.70
2012,01,16,13,43,2.70
2012,01,16,13,44,2.70
2012,01,16,13,45,2.70
2012,01,16,13,46,2.70
2012,01,16,13,47,2.70
2012,01,16,13,48,2.70
2012,01,16,13,49,2.70
2012,01,16,13,50,2.70
2012,01,16,13,51,2.70
2012,01,16,13,52,2.70
2012,01,16,13,53,2.60
2012,01,16,13,54,2.60
2012,01,16,13,55,2.50
2012,01,16,13,56,2.50
2012,01,16,13,57,2.50
2012,01,16,13,58,2.50
2012,01,16,13,59,2.50
2012,01,16,14,00,2.50
2012,01,16,14,01,2.50
2012,01,16,14,02,2.50
2012,01,16,14,03,2.40
2012,01,16,14,04,2.50
2012,01,16,14,05,2.50
2012,01,16,14,06,2.50
2012,01,16,14,07,2.50
2012,01,16,14,08,2.50
2012,01,16,14,09,2.50
2012,01,16,14,10,2.60
2012,01,16,14,11,2.50
2012,01,16,14,12,2.50
2012,01,16,14,13,2.60
2012,01,16,14,14,2.50
2012,01,16,14,15,2.50
2012,01,16,14,16,2.50
2012,01,16,14,17,2.60
2012,01,16,14,18,2.60
2012,01,16,14,19,2.50
2012,01,16,14,20,2.50
2012,01,16,14,21,2.50
2012,01,16,14,22,2.50
2012,01,16,14,23,2.50
2012,01,16,14,24,2.50
2012,01,16,14,25,2.50
2012,01,16,14,26,2.60
2012,01,16,14,27,2.50
2012,01,16,14,28,2.50
2012,01,16,14,29,2.60
2012,01,16,14,30,2.60
2012,01,16,14,31,2.60
2012,01,16,14,32,2.50
2012,01,16,14,33,2.50
2012,01,16,14,34,2.50
2012,01,16,14,35,2.50
2012,01,16,14,36,2.50
2012,01,16,14,37,2.50
2012,01,16,14,38,2.50
2012,01,16,14,39,2.50
2012,01,16,14,40,2.50
2012,01,16,14,41,2.50
2012,01,16,14,42,2.60
2012,01,16,14,43,2.60
2012,01,16,14,44,2.60
2012,01,16,14,45,2.60
2012,01,16,14,46,2.60
2012,01,16,14,47,2.60
2012,01,16,14,48,2.60
2012,01,16,14,49,2.70
2012,01,16,14,50,2.70
2012,01,16,14,51,2.70
2012,01,16,14,52,2.70
2012,01,16,14,53,2.70
2012,01,16,14,54,2.70
2012,01,16,14,55,2.70
2012,01,16,14,56,2.70
2012,01,16,14,57,2.70
2012,01,16,14,58,2.70
2012,01,16,14,59,2.70
2012,01,16,15,00,2.70
2012,01,16,15,01,2.70
2012,01,16,15,02,2.60
2012,01,16,15,03,2.60
2012,01,16,15,04,2.50
2012,01,16,15,05,2.50
2012,01,16,15,06,2.50
2012,01,16,15,07,2.40
2012,01,16,15,08,2.40
2012,01,16,15,09,2.40
2012,01,16,15,10,2.30
2012,01,16,15,11,2.30
2012,01,16,15,12,2.30
2012,01,16,15,13,2.30
2012,01,16,15,14,2.30
2012,01,16,15,15,2.30
2012,01,16,15,16,2.30
2012,01,16,15,17,2.30
2012,01,16,15,18,2.30
2012,01,16,15,19,2.30
2012,01,16,15,20,2.30
2012,01,16,15,21,2.20
2012,01,16,15,22,2.20
2012,01,16,15,23,2.10
2012,01,16,15,24,2.10
2012,01,16,15,25,2.00
2012,01,16,15,26,2.00
2012,01,16,15,27,1.90
2012,01,16,15,28,1.90
2012,01,16,15,29,1.90
2012,01,16,15,30,1.80
2012,01,16,15,31,1.80
2012,01,16,15,32,1.80
2012,01,16,15,33,1.80
2012,01,16,15,34,1.80
2012,01,16,15,35,1.80
2012,01,16,15,36,1.80
2012,01,16,15,37,1.80
2012,01,16,15,38,1.80
2012,01,16,15,39,1.80
2012,01,16,15,40,1.80
2012,01,16,15,41,1.80
2012,01,16,15,42,1.80
2012,01,16,15,43,1.80
2012,01,16,15,44,1.80
2012,01,16,15,45,1.80
2012,01,16,15,46,1.80
2012,01,16,15,47,1.80
2012,01,16,15,48,1.80
2012,01,16,15,49,1.80
2012,01,16,15,50,1.80
2012,01,16,15,51,1.80
2012,01,16,15,52,1.80
2012,01,16,15,53,1.80
2012,01,16,15,54,1.80
2012,01,16,15,55,1.80
2012,01,16,15,56,1.80
2012,01,16,15,57,1.80
2012,01,16,15,58,1.80
2012,01,16,15,59,1.80
2012,01,16,16,00,1.80
2012,01,16,16,01,1.80
2012,01,16,16,02,1.80
2012,01,16,16,03,1.80
2012,01,16,16,04,1.80
2012,01,16,16,05,1.80
2012,01,16,16,06,1.80
2012,01,16,16,07,1.80
2012,01,16,16,08,1.80
2012,01,16,16,09,1.80
2012,01,16,16,10,1.80
2012,01,16,16,11,1.80
2012,01,16,16,12,1.80
2012,01,16,16,13,1.80
2012,01,16,16,14,1.80
2012,01,16,16,15,1.80
2012,01,16,16,16,1.80
2012,01,16,16,17,1.80
2012,01,16,16,18,1.80
2012,01,16,16,19,1.80
2012,01,16,16,20,1.80
2012,01,16,16,21,1.80
2012,01,16,16,22,1.80
2012,01,16,16,23,1.80
2012,01,16,16,24,1.80
2012,01,16,16,25,1.80
2012,01,16,16,26,1.80
2012,01,16,16,27,1.80
2012,01,16,16,28,1.80
2012,01,16,16,29,1.80
2012,01,16,16,30,1.80
2012,01,16,16,31,1.80
2012,01,16,16,32,1.80
2012,01,16,16,33,1.80
2012,01,16,16,34,1.80
2012,01,16,16,35,1.80
